ONEWEB-0053, 45157

Orbit data source: Space-Track

ONEWEB-0053, 45157 is a payload satellite owned by One Web (UK) in LEO that was launched on Thu, 06 Feb 2020 UTC via a SOYUZ-2-1B launch vehicle from the Tyuratam Missile And Space Complex (TTMTR). Payload-class satellites include a variety of spacecraft equipped with specific instruments for various scientific and technological missions. These include communications satellites like Starlink; space stations such as the ISS; scientific satellites like the Hubble; Earth observation satellites from companies like Planet Labs, Umbra, and HawkEye 360; GPS; miniature CubeSats for education and research; and military/defense satellites.

Loading next visibility...
Identifier
45157, 2020-008AC
Orbit
LEO
Last TLE update
15 hours ago
Origin
Manufacturer
One Web
Mission
Operational Commercial Communications
Bus & Motor
ARROW, Unknown motor
Mass
148 kg wet, ~140 kg dry
Launch date (UTC)
2020-02-06 (5 years ago)
Launch vehicle
SOYUZ-2-1B
Launch site
Tyuratam Missile And Space Complex (TTMTR)
Object type
Payload
Rocket body
Debris
Shape & HBR
Trap Box + 2 Pan, 5 m
Radar Cross Section
2.957 m², Large (>1 m²)

Expand to show TLE details & history

TLE from 15 hours ago
0 ONEWEB-0053
1 45157U 20008AC  25181.80336047 -.00000260  00000-0 -78171-3 0  9997
2 45157  87.8823 106.3665 0001894  88.3994 271.7350 13.10369390261896
Epoch: 2025-06-30T19:16Z
TLE epoch observation values (Epoch: 2025-06-30T19:16:50.344Z)
Latitude
-0.00006°
Longitude
-101.95119°
Altitude
1,224.575 km
Speed
7.242 km/s
True Right ascension
07h 05m 27s
True Declination
0° 00' 00"
Sunlit
Object was in daylight at epoch
Visualization orbit readout
Latitude
45.54213°
Longitude
75.77277°
Altitude
1,227.718 km
Speed
7.245 km/s
Apparent Right ascension
14h 57m 06s
Apparent Declination
17° 07' 03"
Sunlit
Object is in daylight
Visualization observer readout
Local Sidereal Time
22:15:59
Azimuth
295.686° NW
Elevation
-3.354°
Doppler factor
1
Orbital elements
Apogee altitude
1,220.289 km
Perigee altitude
1,217.411 km
Semi-major axis
7,596.987 km
Eccentricity
0.00019
Inclination
87.8823°
RAAN
106.3665°
Arg. of periapsis
88.3994°
True anomaly
Unknown
Mean anomaly
271.735°
Eccentric anomaly
Unknown
Mean motion
3.27779 °/min
Orbital period
109.83 mins
BSTAR
-0.00078171
Loading maneuver chart data...
Loading SW <> Apogee altitude chart data...
Loading historical data...
Loading historical data...
Loading historical data...
Loading historical data...
Loading historical data...
Loading historical data...
Loading historical data...

ONEWEB-0053 Visibility forecast

Observer location: undefined°, undefined°

Span
Click to sort rows by Start time (UTC) header in descending order
Start Az.
Max El. time (UTC)
Max El. Az.
Max El.
End time (UTC)
End Az.
13 mins2025-07-01 19:12:30.975Z169.177° S2025-07-01 19:18:30.975Z82.027° E43.903°2025-07-01 19:25:30.975Z4.551° NNE
8 mins2025-07-01 21:05:30.975Z251.882° W2025-07-01 21:09:30.975Z289.626° WNW18.152°2025-07-01 21:13:30.975Z325.025° NNW
13 mins2025-07-02 06:42:30.975Z8.908° NNE2025-07-02 06:48:30.975Z80.565° E40.959°2025-07-02 06:55:30.975Z164.978° S
10 mins2025-07-02 08:33:30.975Z327.848° NNW2025-07-02 08:38:30.975Z278.576° WNW22.134°2025-07-02 08:43:30.975Z234.882° WSW
|